Ainsworth, NE

12:00 AM CDT on July 21, 2017 (GMT -0500)
Ainsworth Municipal

Weather History for KANW - April, 2013

Change the Weather History Date:

Thursday, April 18, 2013

  Actual Average Record
Temperature  
Mean Temperature 28 °F -  
Max Temperature 32 °F 56 °F 73 °F (1999)
Min Temperature 23 °F 35 °F 23 °F (2013)
Degree Days  
Heating Degree Days 38    
Moisture  
Dew Point 21 °F    
Average Humidity 78    
Maximum Humidity 90    
Minimum Humidity 59    
Precipitation  
Precipitation 0.01 in - - ()
Sea Level Pressure  
Sea Level Pressure 29.99 in    
Wind  
Wind Speed 23 mph (NNW)    
Max Wind Speed 31 mph    
Max Gust Speed 37 mph    
Visibility 5 miles    
Events Snow    
Averages and records for this station are not official NWS values.
T = Trace of Precipitation, MM = Missing Value Source: NWS Daily Summary

Daily Weather History Graph

Daily Weather History Graph

Search for Another Location

Airport or City:

Trip Planner

Search our weather history database for the weather conditions in past years. The results will help you decide how hot, cold, wet, or windy it might be!

Date:

Astronomy

Apr. 18, 2013 Rise Set
Actual Time 6:53 AM CDT 8:25 PM CDT
Civil Twilight 6:23 AM CDT 8:55 PM CDT
Nautical Twilight 5:48 AM CDT 9:31 PM CDT
Astronomical Twilight 5:10 AM CDT 10:09 PM CDT
Moon 1:05 PM CDT (4/18) 2:43 AM CDT (4/18)
Length of Visible Light 14h 31m
Length of Day
13h 32m
First Quarter, 52% of the Moon is Illuminated
Apr 18
First Quarter
Apr 25
Full
May 2
Last Quarter
May 9
New
May 17
First Quarter

Hourly Weather History & Observations

Time (CDT) Temp. Windchill Dew Point Humidity Pressure Visibility Wind Dir Wind Speed Gust Speed Precip Events Conditions
12:15 AM 27.3 °F 13.0 °F 23.9 °F 87% 30.06 in 7.0 mi North 23.0 mph 31.1 mph N/A Snow Light Snow
12:35 AM 27.0 °F 11.3 °F 23.0 °F 85% 30.03 in 7.0 mi North 27.6 mph 32.2 mph N/A   Overcast
12:55 AM 27.0 °F 12.8 °F 23.4 °F 86% 30.02 in 7.0 mi North 21.9 mph 32.2 mph N/A   Overcast
1:15 AM 27.0 °F 11.9 °F 23.4 °F 86% 30.02 in 7.0 mi North 25.3 mph 29.9 mph N/A   Overcast
1:35 AM 27.1 °F 11.8 °F 23.2 °F 85% 30.03 in 10.0 mi North 26.5 mph 36.8 mph N/A   Overcast
1:55 AM 27.1 °F 13.8 °F 24.1 °F 88% 30.03 in 7.0 mi North 19.6 mph - N/A   Overcast
2:15 AM 27.3 °F 13.3 °F 24.6 °F 90% 30.02 in 4.0 mi North 21.9 mph - N/A Snow Light Snow
2:35 AM 27.1 °F 12.7 °F 23.9 °F 88% 30.01 in 4.0 mi NNW 23.0 mph 32.2 mph N/A Snow Light Snow
2:55 AM 27.0 °F 12.8 °F 23.4 °F 86% 30.03 in 4.0 mi NNW 21.9 mph 29.9 mph N/A Snow Light Snow
3:15 AM 26.6 °F 11.4 °F 23.0 °F 86% 30.01 in 4.0 mi NNW 25.3 mph 31.1 mph N/A Snow Light Snow
3:35 AM 26.6 °F 12.7 °F 23.5 °F 88% 30.01 in 4.0 mi NNW 20.7 mph 27.6 mph N/A Snow Light Snow
3:55 AM 26.6 °F 12.7 °F 23.0 °F 86% 30.01 in 4.0 mi NNW 20.7 mph 27.6 mph N/A Snow Light Snow
4:15 AM 26.6 °F 12.0 °F 23.0 °F 86% 30.00 in 3.0 mi NNW 23.0 mph 29.9 mph N/A Snow Light Snow
4:35 AM 26.4 °F 12.1 °F 22.8 °F 86% 29.99 in 1.8 mi NNW 21.9 mph - N/A Snow Light Snow
4:55 AM 26.1 °F 11.6 °F 22.8 °F 88% 29.99 in 1.2 mi NNW 21.9 mph 29.9 mph N/A Snow Light Snow
5:15 AM 25.7 °F 11.2 °F 22.6 °F 88% 29.98 in 1.2 mi NNW 21.9 mph 26.5 mph N/A Snow Light Snow
5:35 AM 25.5 °F 10.3 °F 22.6 °F 89% 29.98 in 1.5 mi NNW 24.2 mph 28.8 mph N/A Snow Light Snow
5:55 AM 25.3 °F 10.7 °F 22.1 °F 87% 29.98 in 1.8 mi NNW 21.9 mph 28.8 mph N/A Snow Light Snow
6:15 AM 25.3 °F 10.7 °F 22.1 °F 87% 29.99 in 1.8 mi NNW 21.9 mph 28.8 mph N/A Snow Light Snow
6:35 AM 25.2 °F 12.0 °F 22.1 °F 88% 29.99 in 1.5 mi NNW 17.3 mph 25.3 mph N/A Snow Light Snow
6:55 AM 24.6 °F 10.1 °F 21.2 °F 87% 29.99 in 1.0 mi NNW 20.7 mph 28.8 mph N/A Snow Light Snow
7:15 AM 23.9 °F 8.1 °F 20.3 °F 86% 29.99 in 0.8 mi NNW 24.2 mph 31.1 mph N/A Snow Light Snow
7:35 AM 23.9 °F 8.8 °F 20.3 °F 86% 30.01 in 0.8 mi NNW 21.9 mph 28.8 mph N/A Snow Light Snow
7:55 AM 23.9 °F 8.8 °F 20.1 °F 85% 30.00 in 1.2 mi NNW 21.9 mph 28.8 mph N/A Snow Light Snow
8:15 AM 24.1 °F 8.3 °F 19.8 °F 84% 29.99 in 1.5 mi NNW 24.2 mph 28.8 mph N/A Snow Light Snow
8:35 AM 24.4 °F 8.5 °F 19.9 °F 83% 29.99 in 1.5 mi NNW 25.3 mph 29.9 mph N/A Snow Light Snow
8:55 AM 24.8 °F 8.4 °F 19.4 °F 80% 29.99 in 2.0 mi NNW 27.6 mph 35.7 mph N/A Snow Light Snow
9:15 AM 24.8 °F 9.0 °F 18.3 °F 76% 30.00 in 3.0 mi NNW 25.3 mph 36.8 mph N/A   Haze
9:35 AM 25.0 °F 9.9 °F 17.1 °F 72% 29.99 in 10.0 mi NNW 23.0 mph 35.7 mph N/A   Overcast
9:55 AM 25.2 °F 9.5 °F 19.4 °F 79% 29.99 in 1.2 mi NNW 25.3 mph 34.5 mph N/A Snow Light Snow
10:15 AM 25.5 °F 11.3 °F 21.2 °F 84% 29.99 in 1.0 mi NNW 20.7 mph 28.8 mph N/A Snow Light Snow
10:35 AM 26.6 °F 11.7 °F 22.5 °F 84% 29.99 in 1.2 mi NNW 24.2 mph 31.1 mph N/A Snow Light Snow
10:55 AM 27.0 °F 11.6 °F 22.1 °F 82% 29.99 in 1.2 mi NNW 26.5 mph 36.8 mph N/A Snow Light Snow
11:15 AM 27.3 °F 12.1 °F 21.7 °F 80% 29.99 in 1.2 mi NNW 26.5 mph 36.8 mph N/A Snow Light Snow
11:35 AM 27.5 °F 12.0 °F 22.3 °F 81% 29.99 in 0.8 mi NNW 27.6 mph 33.4 mph N/A Snow Light Snow
11:55 AM 28.2 °F 13.3 °F 22.1 °F 78% 30.00 in 1.5 mi NNW 26.5 mph 35.7 mph N/A   Haze
12:15 PM 28.0 °F 13.3 °F 22.5 °F 80% 29.99 in 1.0 mi NNW 25.3 mph 33.4 mph N/A Snow Light Snow
12:35 PM 28.0 °F 13.3 °F 22.3 °F 79% 29.99 in 2.0 mi NNW 25.3 mph 31.1 mph N/A   Haze
12:55 PM 28.9 °F 13.2 °F 20.1 °F 70% 29.99 in 10.0 mi NNW 31.1 mph 36.8 mph N/A   Overcast
1:15 PM 29.1 °F 15.1 °F 22.3 °F 76% 29.99 in 2.5 mi NNW 24.2 mph 31.1 mph N/A   Haze
1:35 PM 29.1 °F 14.2 °F 22.1 °F 75% 29.99 in 2.5 mi NNW 27.6 mph 36.8 mph N/A   Haze
1:55 PM 29.1 °F 14.8 °F 23.5 °F 80% 29.98 in 1.0 mi NNW 25.3 mph 33.4 mph N/A Snow Light Snow
2:15 PM 29.3 °F 15.6 °F 23.2 °F 78% 29.98 in 1.8 mi NNW 23.0 mph 29.9 mph N/A Snow Light Snow
2:35 PM 29.3 °F 14.7 °F 23.2 °F 78% 29.98 in 2.0 mi NNW 26.5 mph 32.2 mph N/A Snow Light Snow
2:55 PM 29.3 °F 15.3 °F 23.2 °F 78% 29.98 in 0.8 mi NNW 24.2 mph 32.2 mph N/A Snow Light Snow
3:35 PM 30.4 °F 16.2 °F 22.1 °F 71% 29.98 in 10.0 mi NNW 26.5 mph 33.4 mph N/A   Overcast
3:55 PM 30.6 °F 17.3 °F 21.4 °F 69% 29.98 in 10.0 mi NNW 23.0 mph 36.8 mph N/A   Overcast
4:15 PM 31.1 °F 17.2 °F 21.4 °F 67% 29.97 in 10.0 mi NNW 26.5 mph 32.2 mph N/A   Overcast
4:35 PM 31.5 °F 18.2 °F 20.7 °F 64% 29.97 in 10.0 mi NW 24.2 mph 31.1 mph N/A   Overcast
4:55 PM 31.6 °F 18.7 °F 20.7 °F 64% 29.97 in 10.0 mi NW 23.0 mph 32.2 mph N/A   Overcast
5:15 PM 32.0 °F 19.2 °F 20.8 °F 63% 29.97 in 10.0 mi NW 23.0 mph 29.9 mph N/A   Overcast
5:35 PM 32.0 °F 18.6 °F 19.2 °F 59% 29.97 in 10.0 mi NNW 25.3 mph 33.4 mph N/A   Mostly Cloudy
5:55 PM 32.4 °F 18.1 °F 19.6 °F 59% 29.98 in 10.0 mi NNW 29.9 mph 35.7 mph N/A   Mostly Cloudy
6:15 PM 32.0 °F 17.9 °F 19.0 °F 59% 29.98 in 10.0 mi NNW 28.8 mph 35.7 mph N/A   Mostly Cloudy
6:35 PM 32.0 °F 18.9 °F 19.9 °F 61% 29.98 in 10.0 mi NNW 24.2 mph 32.2 mph N/A   Scattered Clouds
6:55 PM 31.6 °F 19.3 °F 20.7 °F 64% 29.98 in 10.0 mi NNW 20.7 mph - N/A   Scattered Clouds
7:15 PM 31.6 °F 18.7 °F 20.7 °F 64% 29.99 in 10.0 mi NNW 23.0 mph 28.8 mph N/A   Clear
7:35 PM 31.5 °F 19.8 °F 21.0 °F 65% 29.99 in 10.0 mi NNW 18.4 mph 29.9 mph N/A   Scattered Clouds
7:55 PM 31.6 °F 20.4 °F 21.6 °F 66% 29.99 in 10.0 mi NNW 17.3 mph - N/A   Scattered Clouds
8:15 PM 31.1 °F 20.9 °F 20.8 °F 66% 29.99 in 10.0 mi NNW 13.8 mph - N/A   Clear
8:35 PM 30.2 °F 20.8 °F 20.3 °F 67% 29.99 in 10.0 mi NNW 11.5 mph - N/A   Clear
9:55 PM 27.1 °F 20.7 °F 18.9 °F 71% 30.01 in 10.0 mi WNW 5.8 mph - N/A   Clear
10:15 PM 26.6 °F 20.0 °F 19.4 °F 74% 30.01 in 10.0 mi West 5.8 mph - N/A   Clear
10:35 PM 25.3 °F 16.7 °F 18.7 °F 76% 30.01 in 10.0 mi WNW 8.1 mph - N/A   Clear
10:55 PM 24.4 °F 16.5 °F 18.3 °F 78% 30.00 in 10.0 mi WNW 6.9 mph - N/A   Clear
11:15 PM 25.2 °F 15.7 °F 18.7 °F 76% 29.99 in 10.0 mi WNW 9.2 mph - N/A   Clear
11:35 PM 26.1 °F 16.8 °F 18.5 °F 73% 29.98 in 10.0 mi WNW 9.2 mph - N/A   Clear
11:55 PM 25.5 °F 16.2 °F 18.1 °F 74% 29.98 in 10.0 mi WNW 9.2 mph - N/A   Clear